This is the latest recevied weather packets stored in our database for station/object KD8DNO-13. If no packets are shown the sender has not sent any weather packets the latest 10 day(s).
| Time | Temp. | Humidity | Pressure | Rain* | Wind** | Luminosity | Snow |
|---|---|---|---|---|---|---|---|
| 1788047883 | 22.78° C | 76% | 1022 hPa | 0 mm | - | - | - |
| 1788047583 | 23.33° C | 74% | 1022 hPa | 0 mm | - | - | - |
| 1788047283 | 23.33° C | 73% | 1022 hPa | 0 mm | - | - | - |
| 1788046983 | 23.89° C | 72% | 1022 hPa | 0 mm | - | - | - |
| 1788046683 | 23.89° C | 70% | 1022.3 hPa | 0 mm | - | - | - |
| 1788046383 | 24.44° C | 70% | 1022.3 hPa | 0 mm | - | - | - |
| 1788046083 | 24.44° C | 69% | 1022.3 hPa | 0 mm | - | - | - |
| 1788045783 | 24.44° C | 69% | 1022.3 hPa | 0 mm | - | - | - |
| 1788045483 | 25° C | 66% | 1022.3 hPa | 0 mm | - | - | - |
| 1788045183 | 25° C | 66% | 1022 hPa | 0 mm | - | - | - |
| 1788044883 | 25.56° C | 65% | 1022 hPa | 0 mm | - | - | - |
| 1788044583 | 26.11° C | 64% | 1022.3 hPa | 0 mm | - | - | - |
| 1788044283 | 26.11° C | 65% | 1022.3 hPa | 0 mm | - | - | - |
| 1788043983 | 26.11° C | 63% | 1022.3 hPa | 0 mm | - | - | - |
| 1788043683 | 26.11° C | 63% | 1022.3 hPa | 0 mm | - | - | - |
| 1788043383 | 26.67° C | 61% | 1022.3 hPa | 0 mm | - | - | - |
| 1788043083 | 26.11° C | 59% | 1022.3 hPa | 0 mm | - | - | - |
| 1788042783 | 25.56° C | 63% | 1022.3 hPa | 0 mm | - | - | - |
| 1788042483 | 26.11° C | 59% | 1022.3 hPa | 0 mm | - | - | - |
| 1788042183 | 26.67° C | 58% | 1022.3 hPa | 0 mm | - | - | - |
| 1788041883 | 26.67° C | 58% | 1022.3 hPa | 0 mm | - | - | - |
| 1788041583 | 26.67° C | 58% | 1022.3 hPa | 0 mm | - | - | - |
| 1788041283 | 27.22° C | 56% | 1022.3 hPa | 0 mm | - | - | - |
| 1788040983 | 26.67° C | 59% | 1022.3 hPa | 0 mm | - | - | - |
| 1788040683 | 26.67° C | 56% | 1022.3 hPa | 0 mm | - | - | - |
* Rain latest hour (hover to see other rain measurements)
** Current wind speed in m/s (hover to see current wind gust speed)